This is the latest recevied weather packets stored in our database for station/object G4GVZ-1. If no packets are shown the sender has not sent any weather packets the latest 10 day(s).
| Time | Temp. | Humidity | Pressure | Rain* | Wind** | Luminosity | Snow |
|---|---|---|---|---|---|---|---|
| 1778287546 | 11.11° C | 87% | 1017.3 hPa | 0 mm | - | - | - |
| 1778286648 | 11.11° C | 87% | 1017.3 hPa | 0 mm | - | - | - |
| 1778285748 | 11.11° C | 87% | 1017.3 hPa | 0 mm | - | - | - |
| 1778284848 | 11.11° C | 87% | 1017.4 hPa | 0 mm | - | - | - |
| 1778283947 | 11.67° C | 87% | 1017.5 hPa | 0 mm | - | - | - |
| 1778283047 | 11.67° C | 87% | 1017.4 hPa | 0 mm | - | - | - |
| 1778282147 | 11.67° C | 86% | 1017.5 hPa | 0 mm | - | - | - |
| 1778281249 | 12.22° C | 86% | 1017.4 hPa | 0 mm | - | - | - |
| 1778280349 | 12.22° C | 85% | 1017.3 hPa | 0 mm | - | - | - |
| 1778279449 | 12.78° C | 84% | 1017.3 hPa | 0 mm | - | - | - |
| 1778278548 | 12.78° C | 81% | 1017.3 hPa | 0 mm | - | - | - |
| 1778277648 | 12.78° C | 82% | 1017.2 hPa | 0 mm | - | - | - |
| 1778276748 | 12.78° C | 81% | 1017.3 hPa | 0 mm | - | - | - |
| 1778275848 | 13.33° C | 80% | 1017.2 hPa | 0 mm | - | - | - |
| 1778274948 | 13.33° C | 80% | 1017.1 hPa | 0 mm | - | - | - |
| 1778274047 | 13.33° C | 78% | 1017 hPa | 0 mm | - | - | - |
| 1778273147 | 13.33° C | 77% | 1016.9 hPa | 0 mm | - | - | - |
| 1778272249 | 13.33° C | 78% | 1016.8 hPa | 0 mm | - | - | - |
| 1778271348 | 13.33° C | 79% | 1016.7 hPa | 0 mm | - | - | - |
| 1778270448 | 13.33° C | 79% | 1016.5 hPa | 0 mm | - | - | - |
| 1778269548 | 13.33° C | 79% | 1016.4 hPa | 0 mm | - | - | - |
| 1778268648 | 13.33° C | 80% | 1016.3 hPa | 0 mm | - | - | - |
| 1778267748 | 13.33° C | 79% | 1016 hPa | 0 mm | - | - | - |
| 1778266847 | 13.33° C | 78% | 1015.9 hPa | 0 mm | - | - | - |
| 1778265948 | 13.89° C | 80% | 1015.8 hPa | 0 mm | - | - | - |
* Rain latest hour (hover to see other rain measurements)
** Current wind speed in m/s (hover to see current wind gust speed)